This is the latest recevied weather packets stored in our database for station/object NF3Q. If no packets are shown the sender has not sent any weather packets the latest 10 day(s).
| Time | Temp. | Humidity | Pressure | Rain* | Wind** | Luminosity | Snow |
|---|---|---|---|---|---|---|---|
| 1777436110 | 17.22° C | 82% | 1012.9 hPa | 0 mm | - | - | - |
| 1777435806 | 17.78° C | 81% | 1013 hPa | 0 mm | - | - | - |
| 1777435220 | 17.78° C | 81% | 1013.2 hPa | 0 mm | - | - | - |
| 1777432205 | 18.33° C | 80% | 1012.9 hPa | 0 mm | - | - | - |
| 1777431906 | 18.33° C | 80% | 1012.8 hPa | 0 mm | - | - | - |
| 1777431308 | 18.33° C | 80% | 1012.7 hPa | 0 mm | - | - | - |
| 1777429818 | 18.33° C | 80% | 1013 hPa | 0 mm | - | - | - |
| 1777427704 | 18.33° C | 80% | 1013.2 hPa | 0 mm | - | - | - |
| 1777427120 | 18.33° C | 80% | 1013.2 hPa | 0 mm | - | - | - |
| 1777425605 | 18.89° C | 78% | 1012.6 hPa | 0 mm | - | - | - |
| 1777425004 | 18.89° C | 77% | 1012.3 hPa | 0 mm | - | - | - |
| 1777423206 | 19.44° C | 75% | 1012 hPa | 0 mm | - | - | - |
| 1777422308 | 20° C | - | 1012 hPa | 0 mm | - | - | - |
| 1777419608 | 21.11° C | 71% | 1012.2 hPa | 0 mm | - | - | - |
| 1777416312 | 22.22° C | 68% | 1012.3 hPa | 0 mm | - | - | - |
| 1777414810 | 21.67° C | 68% | 1012.8 hPa | 0 mm | - | - | - |
| 1777414534 | 22.22° C | 68% | 1012.8 hPa | 0 mm | - | - | - |
| 1777413004 | 21.67° C | 69% | 1012.7 hPa | 0 mm | - | - | - |
| 1777412105 | 21.67° C | 68% | 1012.6 hPa | 0 mm | - | - | - |
| 1777409409 | 20.56° C | 72% | 1013.1 hPa | 0 mm | - | - | - |
| 1777408804 | 20° C | 72% | 1013 hPa | 0 mm | - | - | - |
| 1777407319 | 20.56° C | 72% | 1013.5 hPa | 0 mm | - | - | - |
| 1777407008 | 20° C | 71% | 1013.4 hPa | 0 mm | - | - | - |
| 1777405523 | 19.44° C | 74% | 1013.7 hPa | 0 mm | - | - | - |
| 1777405210 | 19.44° C | 76% | 1013.6 hPa | 0 mm | - | - | - |
* Rain latest hour (hover to see other rain measurements)
** Current wind speed in m/s (hover to see current wind gust speed)